N387EB KATL-KCLT

Flight info

Callsign N387EB
Flight time 0h 55m
Altitude 35000
Route PHIIL3 PHIIL CNTLR JONZE5
Aircraft GA7C/M-SBDE2E3FGHIJ4J5M1RWXY/LB1D1

Departure

Time 2026-05-04 22:15
Airport Hartsfield Jackson Atlanta International Airport (KATL)

Arrival

Time 2026-05-04 23:11
Airport Charlotte Douglas International Airport (KCLT)
Time Latitude Longitude Altitude Speed Heading
2026-05-04 22:01 33.65198 -84.42405 1003 ft 0 kts 29°
2026-05-04 22:11 33.65205 -84.42392 1000 ft 8 kts 79°
2026-05-04 22:11 33.65166 -84.42286 1000 ft 15 kts 118°
2026-05-04 22:11 33.65100 -84.42214 1000 ft 13 kts 171°
2026-05-04 22:11 33.65064 -84.42138 1000 ft 12 kts 91°
2026-05-04 22:12 33.65064 -84.42021 1001 ft 17 kts 90°
2026-05-04 22:12 33.65065 -84.41873 1000 ft 19 kts 89°
2026-05-04 22:12 33.65065 -84.41711 1000 ft 20 kts 89°
2026-05-04 22:12 33.65082 -84.41536 1000 ft 22 kts 66°
2026-05-04 22:13 33.65119 -84.41352 1000 ft 25 kts 90°
2026-05-04 22:13 33.65120 -84.41125 1000 ft 29 kts 89°
2026-05-04 22:13 33.65062 -84.40962 1001 ft 21 kts 173°
2026-05-04 22:13 33.64914 -84.40962 1000 ft 21 kts 180°
2026-05-04 22:14 33.64845 -84.40872 1000 ft 17 kts 88°
2026-05-04 22:14 33.64845 -84.40707 1000 ft 24 kts 90°
2026-05-04 22:14 33.64798 -84.40569 1000 ft 16 kts 169°
2026-05-04 22:14 33.64719 -84.40568 998 ft 16 kts 180°
2026-05-04 22:15 33.64676 -84.40684 998 ft 31 kts 271°
2026-05-04 22:15 33.64680 -84.41360 1003 ft 130 kts 270°
2026-05-04 22:15 33.64683 -84.42220 1140 ft 164 kts 269°
2026-05-04 22:15 33.64706 -84.43606 2054 ft 180 kts 270°
2026-05-04 22:16 33.65100 -84.45268 3021 ft 224 kts 291°
2026-05-04 22:16 33.65728 -84.47091 4696 ft 245 kts 289°
2026-05-04 22:16 33.66333 -84.49074 6473 ft 260 kts 288°
2026-05-04 22:16 33.66995 -84.51145 8277 ft 268 kts 290°
2026-05-04 22:17 33.67690 -84.53206 9539 ft 280 kts 291°
2026-05-04 22:17 33.68745 -84.55221 10286 ft 288 kts 309°
2026-05-04 22:17 33.70246 -84.56789 10561 ft 291 kts 323°
2026-05-04 22:17 33.72112 -84.57815 10580 ft 306 kts 342°
2026-05-04 22:18 33.74245 -84.58116 12139 ft 305 kts 358°
2026-05-04 22:18 33.76372 -84.57747 13834 ft 325 kts 14°
2026-05-04 22:18 33.78415 -84.56431 15043 ft 343 kts 34°
2026-05-04 22:18 33.80135 -84.54316 15928 ft 377 kts 54°
2026-05-04 22:19 33.81225 -84.51341 17164 ft 399 kts 77°
2026-05-04 22:19 33.81483 -84.47987 18895 ft 409 kts 90°
2026-05-04 22:19 33.81381 -84.44510 20363 ft 421 kts 94°
2026-05-04 22:19 33.81207 -84.40939 21886 ft 433 kts 93°
2026-05-04 22:20 33.81194 -84.37264 23390 ft 445 kts 88°
2026-05-04 22:20 33.81062 -84.33493 24611 ft 456 kts 100°
2026-05-04 22:20 33.80350 -84.29744 25996 ft 463 kts 105°
2026-05-04 22:20 33.79550 -84.25955 27283 ft 473 kts 105°
2026-05-04 22:21 33.78716 -84.22165 28902 ft 472 kts 106°
2026-05-04 22:21 33.77852 -84.18369 30604 ft 470 kts 106°
2026-05-04 22:21 33.77010 -84.14567 31985 ft 469 kts 105°
2026-05-04 22:21 33.76185 -84.10777 33349 ft 467 kts 106°
2026-05-04 22:22 33.75349 -84.07010 34558 ft 466 kts 107°
2026-05-04 22:22 33.74487 -84.03180 34977 ft 486 kts 106°
2026-05-04 22:22 33.73584 -83.99146 34993 ft 514 kts 107°
2026-05-04 22:22 33.72636 -83.94876 35002 ft 542 kts 107°
2026-05-04 22:23 33.71636 -83.90398 35004 ft 568 kts 107°
2026-05-04 22:23 33.70594 -83.85763 35001 ft 595 kts 107°
2026-05-04 22:23 33.69494 -83.80867 34985 ft 606 kts 107°
2026-05-04 22:23 33.68428 -83.76086 34988 ft 580 kts 107°
2026-05-04 22:24 33.67394 -83.71482 34977 ft 566 kts 107°
2026-05-04 22:24 33.65879 -83.62121 34974 ft 577 kts 91°
2026-05-04 22:24 33.66330 -83.57350 34974 ft 574 kts 76°
2026-05-04 22:25 33.67654 -83.52917 34980 ft 571 kts 62°
2026-05-04 22:25 33.72087 -83.45013 34997 ft 570 kts 49°
2026-05-04 22:26 33.76977 -83.37540 34991 ft 568 kts 51°
2026-05-04 22:26 33.81108 -83.29353 34983 ft 575 kts 60°
2026-05-04 22:27 33.84915 -83.20983 34978 ft 570 kts 54°
2026-05-04 22:27 33.89459 -83.13124 34988 ft 573 kts 54°
2026-05-04 22:28 33.93686 -83.05006 34991 ft 571 kts 55°
2026-05-04 22:28 33.98133 -82.97039 34997 ft 573 kts 54°
2026-05-04 22:28 34.00261 -82.93076 34978 ft 555 kts 55°
2026-05-04 22:29 34.02225 -82.89309 34993 ft 515 kts 55°
2026-05-04 22:29 34.04150 -82.85756 34980 ft 498 kts 53°
2026-05-04 22:29 34.06079 -82.82279 34978 ft 501 kts 53°
2026-05-04 22:30 34.09899 -82.75139 35003 ft 504 kts 54°
2026-05-04 22:30 34.11833 -82.71534 35008 ft 524 kts 54°
2026-05-04 22:30 34.13870 -82.67796 35006 ft 552 kts 54°
2026-05-04 22:30 34.16042 -82.63766 35008 ft 579 kts 54°
2026-05-04 22:31 34.18201 -82.59697 35000 ft 574 kts 55°
2026-05-04 22:31 34.20342 -82.55673 34750 ft 574 kts 54°
2026-05-04 22:31 34.22488 -82.51691 34107 ft 551 kts 54°
2026-05-04 22:31 34.24574 -82.47809 33431 ft 554 kts 54°
2026-05-04 22:32 34.26672 -82.43874 32797 ft 556 kts 55°
2026-05-04 22:32 34.28764 -82.39936 32048 ft 554 kts 54°
2026-05-04 22:32 34.30865 -82.35995 31302 ft 561 kts 54°
2026-05-04 22:32 34.32993 -82.32005 30582 ft 564 kts 54°
2026-05-04 22:33 34.35015 -82.28180 29782 ft 521 kts 55°
2026-05-04 22:33 34.36971 -82.24482 28972 ft 524 kts 54°
2026-05-04 22:33 34.38936 -82.20797 28175 ft 514 kts 54°
2026-05-04 22:33 34.40843 -82.17187 27373 ft 496 kts 54°
2026-05-04 22:34 34.42681 -82.13714 26597 ft 487 kts 54°
2026-05-04 22:34 34.44496 -82.10288 25852 ft 480 kts 54°
2026-05-04 22:34 34.46284 -82.06896 25126 ft 474 kts 54°
2026-05-04 22:34 34.48053 -82.03539 24419 ft 470 kts 54°
2026-05-04 22:35 34.49800 -82.00223 24001 ft 460 kts 54°
2026-05-04 22:35 34.51469 -81.97049 23995 ft 448 kts 54°
2026-05-04 22:35 34.53174 -81.93819 23999 ft 457 kts 54°
2026-05-04 22:35 34.54879 -81.90577 23298 ft 462 kts 54°
2026-05-04 22:36 34.56621 -81.87261 22021 ft 463 kts 55°
2026-05-04 22:36 34.58274 -81.84087 20740 ft 427 kts 55°
2026-05-04 22:36 34.59805 -81.81156 19529 ft 395 kts 54°
2026-05-04 22:36 34.61237 -81.78439 18374 ft 373 kts 54°
2026-05-04 22:37 34.62617 -81.75817 17108 ft 363 kts 54°
2026-05-04 22:37 34.63958 -81.73248 15886 ft 356 kts 55°
2026-05-04 22:37 34.65252 -81.70764 14736 ft 349 kts 55°
2026-05-04 22:37 34.66544 -81.68294 13577 ft 343 kts 55°
2026-05-04 22:38 34.67810 -81.65874 12700 ft 328 kts 55°
2026-05-04 22:38 34.69063 -81.63471 12581 ft 352 kts 55°
2026-05-04 22:38 34.70359 -81.60988 12294 ft 344 kts 55°
2026-05-04 22:38 34.71640 -81.58524 11941 ft 344 kts 56°
2026-05-04 22:39 34.72915 -81.56073 11590 ft 343 kts 55°
2026-05-04 22:39 34.74183 -81.53640 11248 ft 338 kts 56°
2026-05-04 22:39 34.75477 -81.51330 10957 ft 319 kts 47°
2026-05-04 22:39 34.77005 -81.49410 10984 ft 314 kts 43°
2026-05-04 22:40 34.78565 -81.47396 10990 ft 335 kts 45°
2026-05-04 22:40 34.80065 -81.45414 10957 ft 300 kts 44°
2026-05-04 22:40 34.81485 -81.43605 11011 ft 293 kts 43°
2026-05-04 22:40 34.82963 -81.41750 11020 ft 311 kts 43°
2026-05-04 22:41 34.84440 -81.39854 11011 ft 306 kts 44°
2026-05-04 22:41 34.85891 -81.37975 11007 ft 303 kts 44°
2026-05-04 22:41 34.87348 -81.36107 10924 ft 306 kts 43°
2026-05-04 22:41 34.88828 -81.34216 10777 ft 308 kts 44°
2026-05-04 22:42 34.90281 -81.32347 10595 ft 307 kts 44°
2026-05-04 22:42 34.91745 -81.30450 10401 ft 307 kts 44°
2026-05-04 22:42 34.93214 -81.28548 10198 ft 307 kts 43°
2026-05-04 22:42 34.94697 -81.26683 10004 ft 306 kts 43°
2026-05-04 22:43 34.96146 -81.24817 9989 ft 300 kts 44°
2026-05-04 22:43 34.97550 -81.22988 9987 ft 298 kts 44°
2026-05-04 22:43 34.98974 -81.21151 9984 ft 298 kts 43°
2026-05-04 22:43 35.00399 -81.19323 9968 ft 296 kts 43°
2026-05-04 22:44 35.01814 -81.17486 9972 ft 299 kts 44°
2026-05-04 22:44 35.03230 -81.15616 9976 ft 299 kts 44°
2026-05-04 22:44 35.04642 -81.13744 9976 ft 298 kts 44°
2026-05-04 22:44 35.06047 -81.11882 9975 ft 298 kts 44°
2026-05-04 22:45 35.07454 -81.10019 9975 ft 297 kts 44°
2026-05-04 22:45 35.10252 -81.06308 9978 ft 300 kts 44°
2026-05-04 22:45 35.11670 -81.04432 9981 ft 300 kts 44°
2026-05-04 22:46 35.13078 -81.02562 9984 ft 297 kts 44°
2026-05-04 22:46 35.14471 -81.00705 9978 ft 297 kts 44°
2026-05-04 22:46 35.15860 -80.98856 9988 ft 299 kts 44°
2026-05-04 22:46 35.17267 -80.96980 9998 ft 299 kts 44°
2026-05-04 22:47 35.18587 -80.95218 10001 ft 299 kts 44°
2026-05-04 22:47 35.19987 -80.93342 10000 ft 297 kts 44°
2026-05-04 22:47 35.21379 -80.91473 9997 ft 297 kts 44°
2026-05-04 22:47 35.22778 -80.89596 10000 ft 299 kts 44°
2026-05-04 22:48 35.24182 -80.87709 10005 ft 297 kts 44°
2026-05-04 22:48 35.25528 -80.85889 9988 ft 279 kts 44°
2026-05-04 22:48 35.26775 -80.84187 9987 ft 266 kts 44°
2026-05-04 22:48 35.28139 -80.82709 9959 ft 258 kts 24°
2026-05-04 22:49 35.29836 -80.82195 9910 ft 253 kts 359°
2026-05-04 22:49 35.31576 -80.82237 9416 ft 244 kts 353°
2026-05-04 22:49 35.33254 -80.82355 8930 ft 239 kts 352°
2026-05-04 22:49 35.34873 -80.82482 8306 ft 227 kts 352°
2026-05-04 22:50 35.36419 -80.82611 7673 ft 226 kts 352°
2026-05-04 22:50 35.37986 -80.82754 7051 ft 225 kts 352°
2026-05-04 22:50 35.39546 -80.82909 6450 ft 225 kts 352°
2026-05-04 22:50 35.41107 -80.83071 5818 ft 224 kts 352°
2026-05-04 22:51 35.42671 -80.83234 5183 ft 225 kts 352°
2026-05-04 22:51 35.44240 -80.83399 4562 ft 226 kts 352°
2026-05-04 22:51 35.45773 -80.83591 3980 ft 218 kts 346°
2026-05-04 22:51 35.47009 -80.84445 3897 ft 197 kts 307°
2026-05-04 22:52 35.47431 -80.85956 3986 ft 186 kts 266°
2026-05-04 22:52 35.46941 -80.87395 4007 ft 188 kts 227°
2026-05-04 22:52 35.45809 -80.88203 4034 ft 190 kts 202°
2026-05-04 22:52 35.44558 -80.88764 4024 ft 192 kts 202°
2026-05-04 22:53 35.43335 -80.89337 4014 ft 192 kts 202°
2026-05-04 22:53 35.42086 -80.89904 4016 ft 192 kts 202°
2026-05-04 22:53 35.40831 -80.90468 4021 ft 190 kts 202°
2026-05-04 22:53 35.39586 -80.91026 4020 ft 190 kts 202°
2026-05-04 22:54 35.38341 -80.91579 4017 ft 190 kts 201°
2026-05-04 22:54 35.37103 -80.92139 4003 ft 189 kts 202°
2026-05-04 22:54 35.35806 -80.92724 3537 ft 207 kts 202°
2026-05-04 22:54 35.34482 -80.93334 3140 ft 203 kts 202°
2026-05-04 22:55 35.33210 -80.93951 2764 ft 190 kts 202°
2026-05-04 22:55 35.31920 -80.94356 2554 ft 190 kts 188°
2026-05-04 22:55 35.30589 -80.94352 2311 ft 190 kts 177°
2026-05-04 22:55 35.29293 -80.94211 2105 ft 183 kts 178°
2026-05-04 22:56 35.28034 -80.94096 1831 ft 178 kts 179°
2026-05-04 22:56 35.26862 -80.93992 1587 ft 163 kts 179°
2026-05-04 22:56 35.25748 -80.93897 1395 ft 173 kts 179°
2026-05-04 22:56 35.24589 -80.93807 1168 ft 165 kts 179°
2026-05-04 22:57 35.23472 -80.93704 992 ft 160 kts 178°
2026-05-04 22:57 35.22365 -80.93608 874 ft 165 kts 178°
2026-05-04 22:57 35.21075 -80.93521 1428 ft 206 kts 177°
2026-05-04 22:57 35.19482 -80.93452 2021 ft 238 kts 179°
2026-05-04 22:58 35.17866 -80.93360 2502 ft 228 kts 178°
2026-05-04 22:58 35.16307 -80.93237 2942 ft 221 kts 177°
2026-05-04 22:58 35.14820 -80.93064 3497 ft 208 kts 175°
2026-05-04 22:58 35.13479 -80.92726 4042 ft 194 kts 163°
2026-05-04 22:59 35.12184 -80.92030 3880 ft 218 kts 148°
2026-05-04 22:59 35.11167 -80.90447 3749 ft 250 kts 112°
2026-05-04 22:59 35.10982 -80.88348 3938 ft 254 kts 81°
2026-05-04 22:59 35.11685 -80.86370 3970 ft 258 kts 50°
2026-05-04 23:00 35.13087 -80.85010 3989 ft 259 kts 26°
2026-05-04 23:00 35.14715 -80.84040 4005 ft 261 kts 22°
2026-05-04 23:00 35.16350 -80.83105 4001 ft 265 kts 22°
2026-05-04 23:00 35.18036 -80.82162 4006 ft 267 kts 22°
2026-05-04 23:01 35.19751 -80.81234 4004 ft 270 kts 22°
2026-05-04 23:01 35.21473 -80.80303 4003 ft 269 kts 22°
2026-05-04 23:01 35.23243 -80.79737 3964 ft 258 kts
2026-05-04 23:01 35.24981 -80.79854 3986 ft 243 kts 352°
2026-05-04 23:02 35.26081 -80.79976 3991 ft 236 kts 353°
2026-05-04 23:02 35.28247 -80.80226 4015 ft 234 kts 352°
2026-05-04 23:02 35.29867 -80.80409 4010 ft 232 kts 352°
2026-05-04 23:02 35.30933 -80.80532 4017 ft 231 kts 352°
2026-05-04 23:03 35.32527 -80.80717 4017 ft 228 kts 352°
2026-05-04 23:03 35.34609 -80.80958 4013 ft 224 kts 352°
2026-05-04 23:03 35.36153 -80.81128 4011 ft 221 kts 352°
2026-05-04 23:03 35.37186 -80.81244 4012 ft 220 kts 352°
2026-05-04 23:04 35.38697 -80.81411 4024 ft 222 kts 352°
2026-05-04 23:04 35.40254 -80.81593 4031 ft 228 kts 352°
2026-05-04 23:04 35.41855 -80.81777 4035 ft 233 kts 352°
2026-05-04 23:04 35.43504 -80.81966 4028 ft 240 kts 352°
2026-05-04 23:05 35.45118 -80.82464 3986 ft 241 kts 329°
2026-05-04 23:05 35.46274 -80.83892 3994 ft 236 kts 296°
2026-05-04 23:05 35.46618 -80.85793 4014 ft 233 kts 269°
2026-05-04 23:05 35.46466 -80.87777 4025 ft 234 kts 263°
2026-05-04 23:06 35.46273 -80.89775 4018 ft 238 kts 262°
2026-05-04 23:06 35.46069 -80.91798 4016 ft 239 kts 262°
2026-05-04 23:06 35.45682 -80.93750 3963 ft 235 kts 243°
2026-05-04 23:06 35.44582 -80.95144 3977 ft 232 kts 211°
2026-05-04 23:07 35.43028 -80.95589 3989 ft 232 kts 181°
2026-05-04 23:07 35.41427 -80.95376 4015 ft 230 kts 175°
2026-05-04 23:07 35.39846 -80.95120 3981 ft 228 kts 176°
2026-05-04 23:07 35.38228 -80.94959 3712 ft 237 kts 179°
2026-05-04 23:08 35.36579 -80.94831 3440 ft 237 kts 178°
2026-05-04 23:08 35.34941 -80.94691 3119 ft 234 kts 178°
2026-05-04 23:08 35.33339 -80.94549 2808 ft 232 kts 178°
2026-05-04 23:08 35.31754 -80.94414 2518 ft 220 kts 177°
2026-05-04 23:09 35.30275 -80.94285 2217 ft 206 kts 178°
2026-05-04 23:09 35.28887 -80.94166 1943 ft 193 kts 179°
2026-05-04 23:09 35.27607 -80.94055 1691 ft 176 kts 179°
2026-05-04 23:09 35.26449 -80.93954 1490 ft 165 kts 179°
2026-05-04 23:10 35.25318 -80.93859 1340 ft 160 kts 179°
2026-05-04 23:10 35.24222 -80.93766 1108 ft 155 kts 178°
2026-05-04 23:10 35.23151 -80.93671 908 ft 154 kts 178°
2026-05-04 23:10 35.22107 -80.93580 743 ft 144 kts 177°
2026-05-04 23:11 35.21312 -80.93519 737 ft 81 kts 177°
2026-05-04 23:11 35.20886 -80.93480 733 ft 51 kts 176°
2026-05-04 23:11 35.20776 -80.93426 734 ft 7 kts 68°
2026-05-04 23:11 35.20790 -80.93345 732 ft 0 kts 86°
2026-05-04 23:12 35.20826 -80.93339 733 ft 17 kts 355°
2026-05-04 23:12 35.20968 -80.93354 733 ft 22 kts 355°
2026-05-04 23:13 35.21099 -80.93363 734 ft 10 kts
2026-05-04 23:13 35.21147 -80.93275 735 ft 12 kts 34°
2026-05-04 23:13 35.21171 -80.93272 735 ft 0 kts 359°